SCP
0 0 0 0 0 0 0 0 0 0 0 0 0 0 0 0 0 0 0 0 0 0 0 0 0 0 0 0 0 0 0 0 0 0 0 0 0 0 0 0 0 0 0
0 0 0 0 0 0 0 0 0 0 0 0 0 0 0 0 0 0 0 0 0 0 0 0 0 0 0 0 0 0 0 0 0 0 0 0 0 0 0 0 0 0 0
0 0 0 0 0 0 0 0 0 0 0 0 0 0 0 0 0 0 0 0 0 0 0 0 0 0 0 0 0 0 0 0 0 0 0 0 0 0 0 0 0 0 0
0 0 0 0 0 0 0 0 0 0 0 0 0 0 0 0 0 0 0 0 0 0 0 0 0 0 0 0 0 0 0 0 0 0 0 0 0 0 0 0 0 0 0
0 0 0 0 0 0 0 0 0 0 0 0 0 0 0 0 0 0 0 0 0 0 0 0 0 0 0 0 0 0 0 0 0 0 0 0 0 0 0 0 0 0 0
0 0 0 0 0 0 0 0 0 0 0 0 0 0 0 0 0 0 0 0 0 0 0 0 0 0 0 0 0 0 0 0 0 0 0 0 0 0 0 0 0 0 0
0 0 0 0 0 0 0 0 0 0 0 0 0 0 0 0 0 0 0 0 0 0 0 0 0 0 0 0 0 0 0 0 0 0 0 0 0 0 0 0 0 0 0
0 0 0 0 0 0 0 0 0 0 0 0 0 0 0 0 0 0 0 0 0 0 0 0 0 0 0 0 0 0 0 0 0 0 0 0 0 0 0 0 0 0 0
0 0 0 0 0 0 0 0 0 0 0 0 0 0 0 0 0 0 0 0 0 0 0 0 0 0 0 0 0 0 0 0 0 0 0 0 0 0 0 0 0 0 0
0 0 0 0 0 0 0 0 0 0 0 0 0 0 0 0 0 0 0 0 0 0 0 0 0 0 0 0 0 0 0 0 0 0 0 0 0 0 0 0 0 0 0
0 0 0 0 0 -0 0 -0 -0 -0 0 0 0 0 0 0 0 0 0 0 0 0 0 0 0 0 0 0 0 0 0 0 0 0 0 0 0 0 0 0 0 0 0
-0 -0 -0 -0 -0 0 0 0 0 0 0 0 0 0 0 0 0 0 0 0 0 0 0 0 0 0 0 0 0 0 0 0 0 0 0 0 0 0 0 0 0 0 0
0 -0 -0 -0 0 0 0 0 0 0 0 0 0 0 0 0 0 0 0 0 0 0 0 0 0 0 0 0 0 0 0 0 0 0 0 0 0 0 0 0 0 0 0
-0 -0 -0 0 0 0 0 0 0 0 0 0 0 0 0 0 0 0 0 0 0 0 0 0 0 0 0 0 0 0 0 0 0 0 0 0 0 0 0 0 0 0 0
0 0 0 0 0 0 0 0 0 0 0 0 0 0 0 0 0 0 0 0 0 0 0 0 0 0 0 0 0 0 0 0 0 0 0 0 0 0 0 0 0 0 0
0 0 0 0 0 0 0 0 0 0 0 0 0 0 0 0 0 0 0 0 0 0 0 0 0 0 0 0 0 0 0 0 0 0 0 0 0 0 0 0 0 0 0
0 0 0 0 0 0 -0 -0 0 0 0 0 0 0 0 0 0 0 0 0 0 0 0 0 0 0 0 0 0 0 0 0 0 0 0 0 0 0 0 0 0 0 0
0 0 0 -0 -0 -0 -0 -0 0 0 0 0 0 0 0 0 0 0 0 0 0 0 0 0 0 0 0 0 0 0 0 0 0 0 0 0 0 0 0 0 0 0 0
0 0 0 -0 -0 -0 -0 -0 -0 -0 0 0 0 0 0 0 0 0 0 0 0 0 0 0 0 0 0 0 0 0 0 0 0 0 0 0 0 0 0 0 0 0 0
-0 -0 -0 0 -0 -0 -0 -0 -0 -0 -0 0 0 0 0 0 0 0 0 0 0 0 0 0 0 0 0 0 0 0 0 0 0 0 0 0 0 0 0 0 0 0 0
-0 -0 -0 -0 -0 -0 -0 -0 -0 -0 -0 0 0 0 0 0 0 0 0 0 0 0 0 0 0 0 0 0 0 0 0 0 0 0 0 0 0 0 0 0 0 0 0
0 -0 -0 -0 -0 -0 -0 -0 -0 -0 0 0 0 0 0 0 0 0 0 0 0 0 0 0 0 0 0 0 0 0 0 0 0 0 0 0 0 0 0 0 0 0 0
-0 -0 -0 -0 -0 -0 -0 -0 -0 -0 -0 0 0 0 0 0 0 0 0 0 0 0 0 0 0 0 0 0 0 0 0 0 0 0 0 0 0 0 0 0 0 0 0
-0 -0 -0 -0 -0 -0 -0 -0 -0 -0 -0 0 0 0 0 0 0 0 0 0 0 0 0 0 0 0 0 0 0 0 0 0 0 0 0 0 0 0 0 0 0 0 0
0 0 0 0 0 0 0 0 0 0 -0 0 0 0 0 0 0 0 0 0 0 0 0 0 0 0 0 0 0 0 0 0 0 0 0 0 0 0 0 0 0 0 0
0 0 0 0 0 0 0 0 0 0 0 0 0 0 0 0 0 0 0 0 0 0 0 0 0 0 0 0 0 0 0 0 0 0 0 0 0 0 0 0 0 0 0
Wind_Speed_500mb
42 41 42 47 51 51 56 56 56 48 51 57 58 65 72 69 64 62 59 60 62 62 57 59 60 59 60 58 52 49 49 50 46 44 37 43 48 50 50 46 46 42 35
55 58 54 54 58 59 58 59 63 56 61 61 60 64 69 72 71 70 67 64 66 66 62 62 63 65 66 64 59 56 55 54 52 54 40 36 41 52 44 44 42 35 34
60 58 49 51 61 62 64 61 67 67 68 67 67 66 64 68 75 79 78 76 73 71 69 69 67 66 67 69 66 62 61 62 55 57 49 19 25 14 23 31 33 32 36
49 49 52 53 45 45 57 58 57 63 71 72 72 76 78 79 79 78 73 76 77 76 75 75 76 73 71 72 70 66 67 66 67 61 68 68 51 15 15 28 35 35 50
26 6 5 13 19 32 38 37 48 58 58 63 73 82 89 91 85 83 81 75 76 75 72 75 79 81 80 79 76 75 73 71 72 73 72 69 67 66 64 58 51 52 57
11 6 7 10 7 15 26 31 42 56 63 64 67 78 92 94 92 88 85 85 83 79 77 76 77 79 82 82 81 79 79 76 74 75 76 78 71 71 70 72 76 75 73
11 12 8 18 21 20 17 18 30 43 48 58 67 72 83 91 94 91 88 88 87 86 84 81 79 79 79 79 81 84 85 85 84 82 82 81 81 77 75 72 77 77 79
18 12 25 28 25 27 29 30 27 26 40 48 57 67 69 83 94 94 90 87 85 85 83 83 81 79 77 77 81 86 87 87 88 88 89 86 84 80 80 81 78 71 67
14 16 25 32 28 42 41 43 38 34 30 38 50 59 68 71 79 84 87 82 83 81 78 80 83 82 80 76 74 79 84 86 86 87 87 89 86 84 83 83 84 78 64
17 24 32 39 41 45 47 51 48 43 41 35 39 51 60 68 72 74 78 80 81 78 77 77 79 84 82 78 75 77 76 82 86 86 85 87 86 83 82 81 83 79 79
22 28 30 35 38 45 48 48 52 50 45 44 37 42 53 59 65 71 74 73 73 75 74 75 77 79 80 80 81 80 79 82 84 86 87 86 82 82 80 80 81 77 75
23 24 34 39 42 57 61 59 56 56 54 49 47 43 44 49 57 65 70 69 68 66 69 74 76 79 77 75 76 77 75 83 84 84 84 82 79 81 77 73 71 67 65
28 25 36 49 54 62 66 66 60 57 61 56 49 48 44 44 47 53 57 59 61 62 60 62 68 72 74 76 77 76 76 74 78 80 78 77 75 76 71 66 66 61 59
27 39 49 54 59 62 68 73 71 60 52 65 56 49 47 44 40 41 45 46 44 50 55 59 62 65 68 69 69 70 70 72 76 76 70 69 68 65 62 57 56 56 58
34 45 52 59 65 69 70 73 74 74 63 55 60 56 52 47 43 39 39 39 41 45 49 51 55 57 59 60 61 62 62 65 68 68 64 61 61 57 53 53 55 53 54
45 48 56 65 69 75 80 81 78 79 77 68 63 62 58 55 52 49 45 44 44 45 47 49 52 53 56 58 57 57 57 58 62 58 58 58 58 54 52 57 52 56 59
46 57 64 71 75 78 81 83 83 80 77 71 66 61 62 59 57 57 54 51 50 48 47 48 49 49 50 55 57 59 62 63 61 60 57 54 59 54 54 60 54 52 50
51 62 70 76 78 81 84 84 81 78 73 70 68 65 66 60 56 59 60 57 53 51 48 49 49 50 49 46 44 45 48 52 53 55 55 55 54 57 52 45 44 39 46
58 64 71 76 83 85 88 91 86 82 73 70 66 69 64 63 60 60 60 60 56 53 50 47 46 46 47 46 44 44 46 48 49 51 50 50 50 42 40 40 46 44 40
64 70 76 81 87 90 90 91 90 85 79 70 70 66 62 57 57 57 56 56 55 51 47 43 42 38 37 34 30 29 32 36 36 37 38 38 39 39 37 33 37 33 27
71 74 82 87 89 91 91 88 87 89 82 76 67 60 58 53 49 52 53 50 48 46 41 38 35 31 30 28 29 29 30 30 32 35 33 32 30 26 26 27 26 24 21
80 83 90 92 90 88 89 89 85 84 83 79 70 60 52 51 45 45 44 42 40 39 35 32 31 28 27 26 24 23 24 24 22 23 25 23 23 19 16 17 20 19 19
82 83 86 91 89 82 80 87 82 79 81 79 72 60 50 46 39 38 37 37 36 34 32 30 31 30 28 25 23 21 21 22 21 21 23 23 20 16 13 14 17 18 17
80 81 84 86 87 80 76 74 76 72 72 74 70 58 50 42 37 38 38 36 36 36 35 33 32 31 26 24 21 22 23 23 22 22 22 21 19 17 15 17 17 17 18
76 75 73 76 77 75 72 67 67 66 66 65 60 54 48 42 43 40 40 39 38 37 35 34 31 31 28 25 23 21 21 21 22 24 26 25 22 20 19 20 20 20 21
68 69 64 63 66 67 65 63 60 59 60 59 53 46 44 40 42 41 40 39 37 35 34 31 30 28 26 25 24 23 23 23 20 23 26 26 24 23 21 19 17 18 17
Wind_Direction_500mb
262 261 261 257 256 248 238 230 235 246 245 243 241 233 236 239 237 236 237 248 249 251 247 243 244 243 244 248 247 246 243 243 242 240 250 254 254 260 263 275 276 277 278
261 258 254 253 248 256 252 241 236 239 251 247 251 246 243 244 248 250 245 242 249 251 250 247 246 246 246 247 248 245 246 248 243 244 246 261 267 267 273 271 273 264 268
261 260 258 257 253 251 260 255 244 242 243 253 252 251 248 246 244 247 249 251 250 250 251 252 250 250 250 251 251 249 248 251 249 247 238 226 243 272 258 264 265 263 265
262 263 259 259 264 260 264 267 267 261 252 246 244 247 251 250 254 255 255 254 254 253 252 252 252 251 251 252 253 253 251 250 251 249 249 252 247 259 272 258 262 260 273
269 233 215 255 245 252 258 271 269 265 266 257 248 247 248 256 258 260 256 252 254 257 255 253 251 251 251 252 254 254 252 253 252 252 257 256 257 257 256 272 267 267 273
63 36 316 308 323 285 275 270 259 252 257 262 257 247 248 252 252 255 254 253 253 257 260 257 254 253 252 252 253 255 255 256 256 258 255 255 252 258 259 262 271 274 279
25 54 50 7 3 360 344 314 275 269 261 256 256 252 247 250 254 257 257 255 254 253 259 260 257 256 254 253 252 252 253 255 255 256 259 258 259 263 266 265 270 272 278
103 74 12 353 0 8 0 346 332 300 271 264 254 254 253 249 249 253 255 257 258 260 262 261 262 261 259 257 255 253 254 254 254 254 254 256 260 260 263 262 264 263 267
45 358 339 348 344 351 351 348 340 338 307 274 261 255 255 255 254 255 252 253 255 257 259 258 262 264 261 259 256 254 253 255 254 255 256 255 257 259 258 261 262 258 262
21 2 360 5 2 354 348 341 339 335 334 315 279 258 255 253 257 258 254 252 252 253 250 252 255 261 263 261 257 255 252 247 250 253 254 255 256 257 258 260 257 256 262
27 15 19 360 355 353 348 342 338 331 332 330 311 282 260 254 253 254 258 257 254 250 250 250 249 251 257 261 260 257 254 248 248 251 253 254 256 257 256 254 253 258 261
19 21 7 3 360 358 358 353 344 334 326 326 326 306 283 263 256 257 257 259 259 258 252 249 250 252 250 254 253 252 255 250 247 249 252 254 255 255 258 261 259 261 263
17 19 1 358 355 354 355 353 345 340 333 324 321 322 307 285 267 258 260 260 259 257 255 253 252 252 254 256 258 258 253 252 255 253 252 255 258 260 261 263 258 265 267
19 358 355 354 352 349 349 347 346 335 331 326 323 315 315 308 284 268 260 260 259 257 256 253 254 255 258 260 261 261 258 258 257 255 255 259 261 262 261 260 265 268 267
4 354 351 350 350 347 344 342 341 341 331 317 315 317 308 302 300 288 274 266 260 257 257 256 256 257 258 259 260 259 260 259 261 260 261 260 261 260 262 259 264 263 268
357 352 345 343 344 342 338 337 335 334 334 319 309 305 306 297 291 289 287 282 276 269 262 258 257 258 259 260 261 263 262 262 260 263 262 261 261 258 256 262 263 269 265
345 341 339 337 336 336 335 333 331 330 327 323 313 304 300 294 288 284 283 283 282 278 273 268 263 260 256 255 256 257 257 259 259 258 257 254 259 262 258 263 263 252 256
338 335 333 332 334 334 331 327 327 327 325 322 315 305 296 289 283 280 278 279 279 277 274 272 269 267 264 258 256 257 257 258 257 258 258 255 259 257 257 251 248 252 262
331 328 329 328 329 331 329 326 323 324 323 322 317 311 300 293 283 278 276 275 275 275 273 272 269 265 263 261 255 250 251 252 254 254 257 257 257 249 247 256 256 259 256
331 328 327 326 326 326 326 324 323 321 319 317 315 315 307 298 290 282 277 275 275 274 272 271 270 266 262 257 251 245 245 248 249 249 249 246 246 247 251 252 258 256 242
324 323 322 323 323 324 323 322 320 320 316 312 309 309 306 296 289 283 277 272 271 271 270 268 266 260 254 250 245 240 241 245 247 245 244 243 243 235 241 246 242 235 228
320 320 320 320 321 322 321 319 318 317 314 310 307 306 305 295 287 280 274 271 266 264 262 263 253 244 242 237 236 234 227 236 240 231 228 228 234 233 224 218 216 206 198
318 319 318 318 319 321 319 316 318 316 313 311 307 306 304 296 287 275 269 266 262 254 252 244 238 240 241 240 234 226 219 220 220 213 209 215 201 203 203 188 187 188 190
321 321 319 318 319 322 321 318 318 316 312 309 307 306 300 297 286 274 263 256 258 253 246 238 238 239 232 229 224 217 216 213 212 208 207 195 193 195 196 182 185 188 194
323 323 322 319 320 323 323 323 321 318 313 309 306 303 295 290 281 269 259 250 244 240 241 239 236 235 233 228 224 215 209 205 200 199 195 189 192 192 186 182 184 193 200
327 327 325 322 325 328 329 327 325 321 317 311 307 300 290 281 272 262 248 242 236 233 231 228 225 221 220 221 218 215 202 192 191 189 191 190 192 196 198 201 195 186 185
Wind_Speed_850mb
42 41 42 47 51 51 56 56 56 48 51 57 58 65 72 69 64 62 59 60 62 62 57 59 60 59 60 58 52 49 49 50 46 44 37 43 48 50 50 46 46 42 35
55 58 54 54 58 59 58 59 63 56 61 61 60 64 69 72 71 70 67 64 66 66 62 62 63 65 66 64 59 56 55 54 52 54 40 36 41 52 44 44 42 35 34
60 58 49 51 61 62 64 61 67 67 68 67 67 66 64 68 75 79 78 76 73 71 69 69 67 66 67 69 66 62 61 62 55 57 49 19 25 14 23 31 33 32 36
49 49 52 53 45 45 57 58 57 63 71 72 72 76 78 79 79 78 73 76 77 76 75 75 76 73 71 72 70 66 67 66 67 61 68 68 51 15 15 28 35 35 50
26 6 5 13 19 32 38 37 48 58 58 63 73 82 89 91 85 83 81 75 76 75 72 75 79 81 80 79 76 75 73 71 72 73 72 69 67 66 64 58 51 52 57
11 6 7 10 7 15 26 31 42 56 63 64 67 78 92 94 92 88 85 85 83 79 77 76 77 79 82 82 81 79 79 76 74 75 76 78 71 71 70 72 76 75 73
11 12 8 18 21 20 17 18 30 43 48 58 67 72 83 91 94 91 88 88 87 86 84 81 79 79 79 79 81 84 85 85 84 82 82 81 81 77 75 72 77 77 79
18 12 25 28 25 27 29 30 27 26 40 48 57 67 69 83 94 94 90 87 85 85 83 83 81 79 77 77 81 86 87 87 88 88 89 86 84 80 80 81 78 71 67
14 16 25 32 28 42 41 43 38 34 30 38 50 59 68 71 79 84 87 82 83 81 78 80 83 82 80 76 74 79 84 86 86 87 87 89 86 84 83 83 84 78 64
17 24 32 39 41 45 47 51 48 43 41 35 39 51 60 68 72 74 78 80 81 78 77 77 79 84 82 78 75 77 76 82 86 86 85 87 86 83 82 81 83 79 79
22 28 30 35 38 45 48 48 52 50 45 44 37 42 53 59 65 71 74 73 73 75 74 75 77 79 80 80 81 80 79 82 84 86 87 86 82 82 80 80 81 77 75
23 24 34 39 42 57 61 59 56 56 54 49 47 43 44 49 57 65 70 69 68 66 69 74 76 79 77 75 76 77 75 83 84 84 84 82 79 81 77 73 71 67 65
28 25 36 49 54 62 66 66 60 57 61 56 49 48 44 44 47 53 57 59 61 62 60 62 68 72 74 76 77 76 76 74 78 80 78 77 75 76 71 66 66 61 59
27 39 49 54 59 62 68 73 71 60 52 65 56 49 47 44 40 41 45 46 44 50 55 59 62 65 68 69 69 70 70 72 76 76 70 69 68 65 62 57 56 56 58
34 45 52 59 65 69 70 73 74 74 63 55 60 56 52 47 43 39 39 39 41 45 49 51 55 57 59 60 61 62 62 65 68 68 64 61 61 57 53 53 55 53 54
45 48 56 65 69 75 80 81 78 79 77 68 63 62 58 55 52 49 45 44 44 45 47 49 52 53 56 58 57 57 57 58 62 58 58 58 58 54 52 57 52 56 59
46 57 64 71 75 78 81 83 83 80 77 71 66 61 62 59 57 57 54 51 50 48 47 48 49 49 50 55 57 59 62 63 61 60 57 54 59 54 54 60 54 52 50
51 62 70 76 78 81 84 84 81 78 73 70 68 65 66 60 56 59 60 57 53 51 48 49 49 50 49 46 44 45 48 52 53 55 55 55 54 57 52 45 44 39 46
58 64 71 76 83 85 88 91 86 82 73 70 66 69 64 63 60 60 60 60 56 53 50 47 46 46 47 46 44 44 46 48 49 51 50 50 50 42 40 40 46 44 40
64 70 76 81 87 90 90 91 90 85 79 70 70 66 62 57 57 57 56 56 55 51 47 43 42 38 37 34 30 29 32 36 36 37 38 38 39 39 37 33 37 33 27
71 74 82 87 89 91 91 88 87 89 82 76 67 60 58 53 49 52 53 50 48 46 41 38 35 31 30 28 29 29 30 30 32 35 33 32 30 26 26 27 26 24 21
80 83 90 92 90 88 89 89 85 84 83 79 70 60 52 51 45 45 44 42 40 39 35 32 31 28 27 26 24 23 24 24 22 23 25 23 23 19 16 17 20 19 19
82 83 86 91 89 82 80 87 82 79 81 79 72 60 50 46 39 38 37 37 36 34 32 30 31 30 28 25 23 21 21 22 21 21 23 23 20 16 13 14 17 18 17
80 81 84 86 87 80 76 74 76 72 72 74 70 58 50 42 37 38 38 36 36 36 35 33 32 31 26 24 21 22 23 23 22 22 22 21 19 17 15 17 17 17 18
76 75 73 76 77 75 72 67 67 66 66 65 60 54 48 42 43 40 40 39 38 37 35 34 31 31 28 25 23 21 21 21 22 24 26 25 22 20 19 20 20 20 21
68 69 64 63 66 67 65 63 60 59 60 59 53 46 44 40 42 41 40 39 37 35 34 31 30 28 26 25 24 23 23 23 20 23 26 26 24 23 21 19 17 18 17
Wind_Direction_850mb
262 261 261 257 256 248 238 230 235 246 245 243 241 233 236 239 237 236 237 248 249 251 247 243 244 243 244 248 247 246 243 243 242 240 250 254 254 260 263 275 276 277 278
261 258 254 253 248 256 252 241 236 239 251 247 251 246 243 244 248 250 245 242 249 251 250 247 246 246 246 247 248 245 246 248 243 244 246 261 267 267 273 271 273 264 268
261 260 258 257 253 251 260 255 244 242 243 253 252 251 248 246 244 247 249 251 250 250 251 252 250 250 250 251 251 249 248 251 249 247 238 226 243 272 258 264 265 263 265
262 263 259 259 264 260 264 267 267 261 252 246 244 247 251 250 254 255 255 254 254 253 252 252 252 251 251 252 253 253 251 250 251 249 249 252 247 259 272 258 262 260 273
269 233 215 255 245 252 258 271 269 265 266 257 248 247 248 256 258 260 256 252 254 257 255 253 251 251 251 252 254 254 252 253 252 252 257 256 257 257 256 272 267 267 273
63 36 316 308 323 285 275 270 259 252 257 262 257 247 248 252 252 255 254 253 253 257 260 257 254 253 252 252 253 255 255 256 256 258 255 255 252 258 259 262 271 274 279
25 54 50 7 3 360 344 314 275 269 261 256 256 252 247 250 254 257 257 255 254 253 259 260 257 256 254 253 252 252 253 255 255 256 259 258 259 263 266 265 270 272 278
103 74 12 353 0 8 0 346 332 300 271 264 254 254 253 249 249 253 255 257 258 260 262 261 262 261 259 257 255 253 254 254 254 254 254 256 260 260 263 262 264 263 267
45 358 339 348 344 351 351 348 340 338 307 274 261 255 255 255 254 255 252 253 255 257 259 258 262 264 261 259 256 254 253 255 254 255 256 255 257 259 258 261 262 258 262
21 2 360 5 2 354 348 341 339 335 334 315 279 258 255 253 257 258 254 252 252 253 250 252 255 261 263 261 257 255 252 247 250 253 254 255 256 257 258 260 257 256 262
27 15 19 360 355 353 348 342 338 331 332 330 311 282 260 254 253 254 258 257 254 250 250 250 249 251 257 261 260 257 254 248 248 251 253 254 256 257 256 254 253 258 261
19 21 7 3 360 358 358 353 344 334 326 326 326 306 283 263 256 257 257 259 259 258 252 249 250 252 250 254 253 252 255 250 247 249 252 254 255 255 258 261 259 261 263
17 19 1 358 355 354 355 353 345 340 333 324 321 322 307 285 267 258 260 260 259 257 255 253 252 252 254 256 258 258 253 252 255 253 252 255 258 260 261 263 258 265 267
19 358 355 354 352 349 349 347 346 335 331 326 323 315 315 308 284 268 260 260 259 257 256 253 254 255 258 260 261 261 258 258 257 255 255 259 261 262 261 260 265 268 267
4 354 351 350 350 347 344 342 341 341 331 317 315 317 308 302 300 288 274 266 260 257 257 256 256 257 258 259 260 259 260 259 261 260 261 260 261 260 262 259 264 263 268
357 352 345 343 344 342 338 337 335 334 334 319 309 305 306 297 291 289 287 282 276 269 262 258 257 258 259 260 261 263 262 262 260 263 262 261 261 258 256 262 263 269 265
345 341 339 337 336 336 335 333 331 330 327 323 313 304 300 294 288 284 283 283 282 278 273 268 263 260 256 255 256 257 257 259 259 258 257 254 259 262 258 263 263 252 256
338 335 333 332 334 334 331 327 327 327 325 322 315 305 296 289 283 280 278 279 279 277 274 272 269 267 264 258 256 257 257 258 257 258 258 255 259 257 257 251 248 252 262
331 328 329 328 329 331 329 326 323 324 323 322 317 311 300 293 283 278 276 275 275 275 273 272 269 265 263 261 255 250 251 252 254 254 257 257 257 249 247 256 256 259 256
331 328 327 326 326 326 326 324 323 321 319 317 315 315 307 298 290 282 277 275 275 274 272 271 270 266 262 257 251 245 245 248 249 249 249 246 246 247 251 252 258 256 242
324 323 322 323 323 324 323 322 320 320 316 312 309 309 306 296 289 283 277 272 271 271 270 268 266 260 254 250 245 240 241 245 247 245 244 243 243 235 241 246 242 235 228
320 320 320 320 321 322 321 319 318 317 314 310 307 306 305 295 287 280 274 271 266 264 262 263 253 244 242 237 236 234 227 236 240 231 228 228 234 233 224 218 216 206 198
318 319 318 318 319 321 319 316 318 316 313 311 307 306 304 296 287 275 269 266 262 254 252 244 238 240 241 240 234 226 219 220 220 213 209 215 201 203 203 188 187 188 190
321 321 319 318 319 322 321 318 318 316 312 309 307 306 300 297 286 274 263 256 258 253 246 238 238 239 232 229 224 217 216 213 212 208 207 195 193 195 196 182 185 188 194
323 323 322 319 320 323 323 323 321 318 313 309 306 303 295 290 281 269 259 250 244 240 241 239 236 235 233 228 224 215 209 205 200 199 195 189 192 192 186 182 184 193 200
327 327 325 322 325 328 329 327 325 321 317 311 307 300 290 281 272 262 248 242 236 233 231 228 225 221 220 221 218 215 202 192 191 189 191 190 192 196 198 201 195 186 185